Time,TemperatureF,DewpointF,PressureIn,WindDirection,WindDirectionDegrees,WindSpeedMPH,WindSpeedGustMPH,Humidity,HourlyPrecipIn,Conditions,Clouds,dailyrainin,SoftwareType,DateUTC
2013-08-06 00:13:00,76.5,67.6,29.90,SW,225,1.7,-999.0,74,-99.99,,,0.00,Acu-Link.com,2013-08-06 04:13:00,
2013-08-06 00:28:00,76.5,67.6,29.91,East,90,0.0,-999.0,74,-99.99,,,0.00,Acu-Link.com,2013-08-06 04:28:00,
2013-08-06 00:43:00,76.3,67.4,29.90,West,270,1.1,-999.0,74,-99.99,,,0.00,Acu-Link.com,2013-08-06 04:43:00,
2013-08-06 00:58:00,76.1,66.8,29.91,West,270,0.0,-999.0,73,-99.99,,,0.00,Acu-Link.com,2013-08-06 04:58:00,
2013-08-06 01:14:00,75.9,67.4,29.92,SSW,202,0.0,-999.0,75,-99.99,,,0.00,Acu-Link.com,2013-08-06 05:14:00,
2013-08-06 01:29:00,75.4,67.3,29.92,ENE,67,0.0,-999.0,76,-99.99,,,0.00,Acu-Link.com,2013-08-06 05:29:00,
2013-08-06 01:44:00,74.7,67.4,29.92,SSE,157,0.0,-999.0,78,-99.99,,,0.00,Acu-Link.com,2013-08-06 05:44:00,
2013-08-06 01:59:00,74.1,67.5,29.92,East,90,0.0,-999.0,80,-99.99,,,0.00,Acu-Link.com,2013-08-06 05:59:00,
2013-08-06 02:14:00,73.8,67.2,29.91,East,90,1.7,-999.0,80,-99.99,,,0.00,Acu-Link.com,2013-08-06 06:14:00,
2013-08-06 02:29:00,73.6,67.0,29.91,East,90,0.0,-999.0,80,-99.99,,,0.00,Acu-Link.com,2013-08-06 06:29:00,
2013-08-06 02:44:00,73.4,66.5,29.91,SSW,202,0.0,-999.0,79,-99.99,,,0.00,Acu-Link.com,2013-08-06 06:44:00,
2013-08-06 02:59:00,73.4,66.1,29.91,WSW,247,1.1,-999.0,78,-99.99,,,0.00,Acu-Link.com,2013-08-06 06:59:00,
2013-08-06 03:14:00,73.6,65.9,29.91,SE,135,2.2,-999.0,77,-99.99,,,0.00,Acu-Link.com,2013-08-06 07:14:00,
2013-08-06 03:30:00,73.6,65.9,29.89,SSW,202,0.0,-999.0,77,-99.99,,,0.00,Acu-Link.com,2013-08-06 07:30:00,
2013-08-06 03:45:00,73.6,65.9,29.89,SSE,157,0.0,-999.0,77,-99.99,,,0.00,Acu-Link.com,2013-08-06 07:45:00,
2013-08-06 04:00:00,73.6,65.9,29.89,WSW,247,0.0,-999.0,77,-99.99,,,0.00,Acu-Link.com,2013-08-06 08:00:00,
2013-08-06 04:15:00,73.6,65.9,29.89,ESE,112,0.0,-999.0,77,-99.99,,,0.00,Acu-Link.com,2013-08-06 08:15:00,
2013-08-06 04:30:00,73.4,65.7,29.90,SW,225,0.0,-999.0,77,-99.99,,,0.00,Acu-Link.com,2013-08-06 08:30:00,
2013-08-06 04:45:00,73.2,66.6,29.90,West,270,0.0,-999.0,80,-99.99,,,0.00,Acu-Link.com,2013-08-06 08:45:00,
2013-08-06 05:00:00,72.1,66.3,29.90,South,180,0.0,-999.0,82,-99.99,,,0.00,Acu-Link.com,2013-08-06 09:00:00,
2013-08-06 05:16:00,71.4,66.6,29.91,West,270,0.0,-999.0,85,-99.99,,,0.01,Acu-Link.com,2013-08-06 09:16:00,
2013-08-06 05:31:00,70.5,66.1,29.92,SW,225,3.2,-999.0,86,-99.99,,,0.15,Acu-Link.com,2013-08-06 09:31:00,
2013-08-06 05:46:00,70.0,65.6,29.92,SE,135,0.0,-999.0,86,-99.99,,,0.38,Acu-Link.com,2013-08-06 09:46:00,
2013-08-06 06:01:00,69.6,65.2,29.92,WSW,247,1.1,-999.0,86,-99.99,,,0.67,Acu-Link.com,2013-08-06 10:01:00,
2013-08-06 06:16:00,69.4,65.0,29.92,South,180,0.0,-999.0,86,-99.99,,,0.83,Acu-Link.com,2013-08-06 10:16:00,
2013-08-06 06:31:00,69.3,65.3,29.92,SW,225,0.0,-999.0,87,-99.99,,,1.38,Acu-Link.com,2013-08-06 10:31:00,
2013-08-06 06:46:00,69.3,65.3,29.91,NE,45,0.0,-999.0,87,-99.99,,,1.52,Acu-Link.com,2013-08-06 10:46:00,
2013-08-06 07:01:00,69.3,65.3,29.92,West,270,0.0,-999.0,87,-99.99,,,1.85,Acu-Link.com,2013-08-06 11:01:00,
2013-08-06 07:17:00,69.3,64.9,29.93,ESE,112,0.0,-999.0,86,-99.99,,,1.92,Acu-Link.com,2013-08-06 11:17:00,
2013-08-06 07:32:00,69.4,65.4,29.93,East,90,0.0,-999.0,87,-99.99,,,2.04,Acu-Link.com,2013-08-06 11:32:00,
2013-08-06 07:47:00,69.4,65.7,29.93,East,90,0.0,-999.0,88,-99.99,,,2.59,Acu-Link.com,2013-08-06 11:47:00,
2013-08-06 08:02:00,69.6,65.9,29.94,WNW,292,0.0,-999.0,88,-99.99,,,2.75,Acu-Link.com,2013-08-06 12:02:00,
2013-08-06 08:17:00,69.8,66.1,29.94,West,270,0.0,-999.0,88,-99.99,,,2.76,Acu-Link.com,2013-08-06 12:17:00,
2013-08-06 08:32:00,70.3,66.6,29.94,West,270,0.0,-999.0,88,-99.99,,,2.76,Acu-Link.com,2013-08-06 12:32:00,
2013-08-06 08:47:00,70.7,67.0,29.94,South,180,0.0,-999.0,88,-99.99,,,2.76,Acu-Link.com,2013-08-06 12:47:00,
2013-08-06 09:02:00,71.2,67.1,29.95,South,180,0.0,-999.0,87,-99.99,,,2.76,Acu-Link.com,2013-08-06 13:02:00,
2013-08-06 09:17:00,71.4,67.3,29.95,South,180,0.0,-999.0,87,-99.99,,,2.76,Acu-Link.com,2013-08-06 13:17:00,
2013-08-06 09:32:00,71.6,67.2,29.95,South,180,0.0,-999.0,86,-99.99,,,2.76,Acu-Link.com,2013-08-06 13:32:00,
2013-08-06 09:48:00,71.8,67.4,29.96,SW,225,0.0,-999.0,86,-99.99,,,2.76,Acu-Link.com,2013-08-06 13:48:00,
2013-08-06 10:03:00,71.8,67.0,29.96,ESE,112,1.7,-999.0,85,-99.99,,,2.76,Acu-Link.com,2013-08-06 14:03:00,
2013-08-06 10:18:00,72.0,66.9,29.96,South,180,0.0,-999.0,84,-99.99,,,2.76,Acu-Link.com,2013-08-06 14:18:00,
2013-08-06 10:33:00,72.3,67.2,29.96,West,270,0.0,-999.0,84,-99.99,,,2.76,Acu-Link.com,2013-08-06 14:33:00,
2013-08-06 10:48:00,72.5,67.4,29.96,NE,45,0.0,-999.0,84,-99.99,,,2.76,Acu-Link.com,2013-08-06 14:48:00,
2013-08-06 11:03:00,72.7,67.9,29.96,ENE,67,0.0,-999.0,85,-99.99,,,2.76,Acu-Link.com,2013-08-06 15:03:00,
2013-08-06 11:18:00,72.9,67.8,29.96,West,270,0.0,-999.0,84,-99.99,,,2.76,Acu-Link.com,2013-08-06 15:18:00,
2013-08-06 11:33:00,73.4,68.3,29.96,NNE,22,0.0,-999.0,84,-99.99,,,2.76,Acu-Link.com,2013-08-06 15:33:00,
2013-08-06 11:48:00,73.2,68.8,29.97,ESE,112,0.0,-999.0,86,-99.99,,,2.76,Acu-Link.com,2013-08-06 15:48:00,
2013-08-06 12:04:00,73.8,69.0,29.96,SSE,157,0.0,-999.0,85,-99.99,,,2.76,Acu-Link.com,2013-08-06 16:04:00,
2013-08-06 12:19:00,74.5,70.0,29.97,ESE,112,0.0,-999.0,86,-99.99,,,2.76,Acu-Link.com,2013-08-06 16:19:00,
2013-08-06 12:34:00,74.5,70.0,29.96,ESE,112,0.0,-999.0,86,-99.99,,,2.76,Acu-Link.com,2013-08-06 16:34:00,
2013-08-06 12:49:00,74.7,70.2,29.96,ESE,112,0.0,-999.0,86,-99.99,,,2.76,Acu-Link.com,2013-08-06 16:49:00,
2013-08-06 13:04:00,73.9,69.4,29.97,ENE,67,0.0,-999.0,86,-99.99,,,2.76,Acu-Link.com,2013-08-06 17:04:00,
2013-08-06 13:19:00,73.9,69.4,29.96,ESE,112,0.0,-999.0,86,-99.99,,,2.76,Acu-Link.com,2013-08-06 17:19:00,
2013-08-06 13:34:00,74.7,70.2,29.96,ESE,112,0.0,-999.0,86,-99.99,,,2.76,Acu-Link.com,2013-08-06 17:34:00,
2013-08-06 13:49:00,76.1,71.6,29.95,ESE,112,0.0,-999.0,86,-99.99,,,2.76,Acu-Link.com,2013-08-06 17:49:00,
2013-08-06 14:04:00,75.7,70.9,29.95,ESE,112,0.0,-999.0,85,-99.99,,,2.76,Acu-Link.com,2013-08-06 18:04:00,
2013-08-06 14:20:00,76.8,71.2,29.95,South,180,0.0,-999.0,83,-99.99,,,2.76,Acu-Link.com,2013-08-06 18:20:00,
2013-08-06 14:35:00,77.7,71.8,29.95,ESE,112,0.0,-999.0,82,-99.99,,,2.76,Acu-Link.com,2013-08-06 18:35:00,
2013-08-06 14:50:00,77.2,71.6,29.94,SSW,202,0.0,-999.0,83,-99.99,,,2.76,Acu-Link.com,2013-08-06 18:50:00,
2013-08-06 15:05:00,79.0,72.3,29.93,NE,45,0.0,-999.0,80,-99.99,,,2.76,Acu-Link.com,2013-08-06 19:05:00,
2013-08-06 15:20:00,79.2,71.7,29.93,South,180,0.0,-999.0,78,-99.99,,,2.76,Acu-Link.com,2013-08-06 19:20:00,
2013-08-06 15:35:00,80.6,72.3,29.93,SW,225,2.2,-999.0,76,-99.99,,,2.76,Acu-Link.com,2013-08-06 19:35:00,
2013-08-06 15:50:00,80.8,72.1,29.93,SW,225,0.0,-999.0,75,-99.99,,,2.76,Acu-Link.com,2013-08-06 19:50:00,
2013-08-06 16:05:00,79.9,70.9,29.92,NE,45,1.1,-999.0,74,-99.99,,,2.76,Acu-Link.com,2013-08-06 20:05:00,
2013-08-06 16:20:00,81.5,72.4,29.92,South,180,0.0,-999.0,74,-99.99,,,2.76,Acu-Link.com,2013-08-06 20:20:00,
2013-08-06 16:36:00,81.7,71.4,29.92,SSW,202,1.7,-999.0,71,-99.99,,,2.76,Acu-Link.com,2013-08-06 20:36:00,
2013-08-06 16:51:00,81.3,71.0,29.92,ESE,112,0.0,-999.0,71,-99.99,,,2.76,Acu-Link.com,2013-08-06 20:51:00,
2013-08-06 17:06:00,81.5,71.2,29.92,West,270,1.7,-999.0,71,-99.99,,,2.76,Acu-Link.com,2013-08-06 21:06:00,
2013-08-06 17:21:00,81.5,70.7,29.92,NNE,22,1.1,-999.0,70,-99.99,,,2.76,Acu-Link.com,2013-08-06 21:21:00,
2013-08-06 17:36:00,80.8,71.3,29.92,ESE,112,1.1,-999.0,73,-99.99,,,2.76,Acu-Link.com,2013-08-06 21:36:00,
2013-08-06 17:51:00,79.7,70.3,29.93,SSW,202,2.7,-999.0,73,-99.99,,,2.76,Acu-Link.com,2013-08-06 21:51:00,
2013-08-06 18:06:00,78.8,70.2,29.92,SSE,157,0.0,-999.0,75,-99.99,,,2.76,Acu-Link.com,2013-08-06 22:06:00,
2013-08-06 18:21:00,78.8,70.2,29.93,ENE,67,0.0,-999.0,75,-99.99,,,2.76,Acu-Link.com,2013-08-06 22:21:00,
2013-08-06 18:36:00,79.3,70.3,29.93,NE,45,1.1,-999.0,74,-99.99,,,2.76,Acu-Link.com,2013-08-06 22:36:00,
2013-08-06 18:51:00,79.5,70.9,29.94,SE,135,1.7,-999.0,75,-99.99,,,2.76,Acu-Link.com,2013-08-06 22:51:00,
2013-08-06 19:07:00,77.9,70.1,29.93,ESE,112,0.0,-999.0,77,-99.99,,,2.76,Acu-Link.com,2013-08-06 23:07:00,
2013-08-06 19:22:00,77.5,70.1,29.93,WNW,292,0.0,-999.0,78,-99.99,,,2.76,Acu-Link.com,2013-08-06 23:22:00,
2013-08-06 19:37:00,75.9,69.6,29.93,South,180,1.1,-999.0,81,-99.99,,,2.76,Acu-Link.com,2013-08-06 23:37:00,
2013-08-06 19:52:00,75.4,69.5,29.93,NE,45,1.1,-999.0,82,-99.99,,,2.76,Acu-Link.com,2013-08-06 23:52:00,
2013-08-06 20:07:00,74.8,69.3,29.94,NW,315,0.0,-999.0,83,-99.99,,,2.76,Acu-Link.com,2013-08-07 00:07:00,
2013-08-06 20:22:00,74.5,69.3,29.95,NE,45,0.0,-999.0,84,-99.99,,,2.76,Acu-Link.com,2013-08-07 00:22:00,
2013-08-06 20:37:00,73.9,69.1,29.94,SE,135,0.0,-999.0,85,-99.99,,,2.76,Acu-Link.com,2013-08-07 00:37:00,
2013-08-06 20:52:00,73.6,68.8,29.95,South,180,0.0,-999.0,85,-99.99,,,2.76,Acu-Link.com,2013-08-07 00:52:00,
2013-08-06 21:07:00,73.0,68.6,29.95,South,180,0.0,-999.0,86,-99.99,,,2.76,Acu-Link.com,2013-08-07 01:07:00,
2013-08-06 21:23:00,72.7,68.3,29.95,South,180,0.0,-999.0,86,-99.99,,,2.76,Acu-Link.com,2013-08-07 01:23:00,
2013-08-06 21:38:00,72.7,68.3,29.96,WSW,247,0.0,-999.0,86,-99.99,,,2.76,Acu-Link.com,2013-08-07 01:38:00,
2013-08-06 21:53:00,72.5,68.1,29.97,WSW,247,0.0,-999.0,86,-99.99,,,2.76,Acu-Link.com,2013-08-07 01:53:00,
2013-08-06 22:08:00,72.5,68.1,29.97,WSW,247,0.0,-999.0,86,-99.99,,,2.76,Acu-Link.com,2013-08-07 02:08:00,
2013-08-06 22:23:00,72.5,68.1,29.97,NE,45,1.7,-999.0,86,-99.99,,,2.76,Acu-Link.com,2013-08-07 02:23:00,
2013-08-06 22:38:00,72.7,68.3,29.97,ESE,112,0.0,-999.0,86,-99.99,,,2.76,Acu-Link.com,2013-08-07 02:38:00,
2013-08-06 22:53:00,72.7,68.6,29.98,ESE,112,0.0,-999.0,87,-99.99,,,2.76,Acu-Link.com,2013-08-07 02:53:00,
2013-08-06 23:08:00,72.7,68.6,29.98,ESE,112,0.0,-999.0,87,-99.99,,,2.76,Acu-Link.com,2013-08-07 03:08:00,
2013-08-06 23:23:00,72.7,68.6,29.97,ESE,112,0.0,-999.0,87,-99.99,,,2.76,Acu-Link.com,2013-08-07 03:23:00,
2013-08-06 23:39:00,72.7,68.6,29.97,ESE,112,0.0,-999.0,87,-99.99,,,2.76,Acu-Link.com,2013-08-07 03:39:00,
2013-08-06 23:54:00,72.5,68.4,29.96,ESE,112,0.0,-999.0,87,-99.99,,,2.76,Acu-Link.com,2013-08-07 03:54:00,